Tracking 19854 objects as of 21-Sep-2019
HD Live streaming from Space Station
objects crossing your sky now

COSMOS 249 DEB

Track COSMOS 249 DEB now!
10-day predictions


NORAD ID: 14410
Int'l Code: 1968-091CL
Perigee: 656.9 km
Apogee: 1,353.0 km
Inclination: 62.2 °
Period: 105.1 minutes
Semi major axis: 7375 km
RCS: 0.0157 m2 (small)
Launch date: October 20, 1968
Source: Commonwealth of Independent States (former USSR) (CIS)
Launch site: TYURATAM MISSILE AND SPACE COMPLEX (TTMTR)

Note: This is SATELLITE DEBRIS
aabbcc
Your satellite tracking list
Your tracking list is empty




NASA's NSSDC Master Catalog

Two Line Element Set (TLE):
1 14410U 68091CL  19262.67900376  .00000671  00000-0  40016-3 0  9990
2 14410  62.2218  88.3605 0471871   6.4350  71.6965 13.70501852763506
Source of the keplerian elements: AFSPC